Regional Weather Roundup
Issued by NWS Wakefield, VA

Home | Current Version | Previous Version | Text Only | Print | Product List | Glossary Off
Versions: 1 2 3 4 5 6 7 8 9 10 11 12 13 14 15 16 17 18 19 20 21 22 23 24 25 26 27

000
ASUS41 KAKQ 051815
RWRAKQ

REGIONAL WEATHER ROUNDUP
NATIONAL WEATHER SERVICE WAKEFIELD VA
200 PM EDT THU MAY 05 2016

Note: "fair" indicates few or no clouds below 12,000 feet with no
significant weather and/or obstructions to visibility. * = Denotes
station may not report precipitation (e.g., rain,snow,etc.),
thunder or fog.

VAZ042-051-052>054-056-051900-
NORTHERN VIRGINIA

CITY           SKY/WX    TMP DP  RH WIND       PRES   REMARKS
WASH NATIONAL  CLOUDY    54  48  80 NE13      29.65F
DULLES         CLOUDY    53  47  79 NE12      29.66F
FORT BELVOIR   CLOUDY    54  48  81 VRB6      29.65F
QUANTICO       CLOUDY    55  49  80 NE18      29.64F
FREDERICKSBRG* CLOUDY    54  54 100 N9G17     29.62F
STAFFORD*      CLOUDY    53  49  85 N12G18    29.67F
WARRENTON      CLOUDY    55  46  72 NE12G18   29.64F
CULPEPER*      CLOUDY    54  50  86 N6        29.65F
MANASSAS*      CLOUDY    55  50  82 N13       29.65
LEESBURG*      LGT RAIN  54  54 100 N6        29.67F
WINCHESTER     CLOUDY    52  48  87 N5        29.67S FOG
FRONT ROYAL*   CLOUDY    50  50 100 CALM      29.65F
LURAY*         CLOUDY    52  52 100 NE8       29.65S
$$

VAZ048-049-060>072-079>083-051900-
CENTRAL AND SOUTH CENTRAL VIRGINIA

CITY           SKY/WX    TMP DP  RH WIND       PRES   REMARKS
RICHMOND       CLOUDY    54  51  90 N14       29.59F
CHESTERFIELD*  CLOUDY    54  39  58 NE10      29.61F
PETERSBURG*    LGT RAIN  56  56 100 N9        29.59S
HANOVER        CLOUDY    54  50  86 VRB6      29.62F
TAPPAHANNOCK*  CLOUDY    55  51  85 N9G16     29.61F
QUINTON*       CLOUDY    55  50  83 N8        29.59S
CHARLOTTSVILLE CLOUDY    55  49  80 N8        29.63F
GORDONSVILLE*  CLOUDY    53  50  89 NE7G16    29.63S
ORANGE*        CLOUDY    52  52 100 NE6       29.65F
LOUISA*        LGT RAIN  55  54  94 NE6       29.61S
BUMPASS*       CLOUDY    55  50  86 NE5       29.61F
FARMVILLE*     DRIZZLE   54  54 100 N6        29.60S
CREWE*         CLOUDY    53  53 100 N7        29.59S
FORT PICKETT*  NOT AVBL
CHASE CITY*    CLOUDY    52  51  95 NE9       29.58F
CLARKSVILLE*   CLOUDY    54  54 100 N6        29.57S
SOUTH HILL*    CLOUDY    52  51  97 N8        29.63S
LAWRENCEVILLE* CLOUDY    54  52  93 N3        29.56F
EMPORIA*       CLOUDY    54  52  94 NE7       29.57F
$$

VAZ088>098-051900-
SOUTHEAST VIRGINIA

CITY           SKY/WX    TMP DP  RH WIND       PRES   REMARKS
NORFOLK        CLOUDY    54  48  80 NE17G28   29.57F
VIRGINIA BEACH CLOUDY    57  47  69 NE17G30   29.56F
NORFOLK NAVAL  CLOUDY    55  50  83 NE16G23   29.59F
WEST POINT*    CLOUDY    55  49  80 NE7       29.61F
SALUDA*        CLOUDY    52  49  89 N12       29.60S
NEWPORT NEWS   CLOUDY    54  50  86 N10G20    29.58F
LANGLEY AFB    CLOUDY    55  50  85 NE13      29.58S
FORT EUSTIS    CLOUDY    55  49  81 NE9G17    29.57S
WILLIAMSBURG*  FAIR      55  52  88 NE5       29.59F
HR EXEC AP*    CLOUDY    54  50  87 NE10      29.59F
FRANKLIN*      CLOUDY    55  50  85 NE14G21   29.57S
US460-WAKEFLD  LGT RAIN  54  51  90 VRB5      29.57S
$$

VAZ020-022-025-037-045-051900-
WEST CENTRAL AND SOUTHWEST VIRGINIA

CITY           SKY/WX    TMP DP  RH WIND       PRES   REMARKS
STAUNTON*      RAIN      52  52 100 N9        29.66S
WAYNESBORO*    CLOUDY    52  50  93 N13G20    29.63F
HOT SPRINGS VA LGT RAIN  40  40 100 NW9G17    29.62F VSB 1/4
LYNCHBURG      LGT RAIN  51  49  92 NE10      29.62F
DANVILLE       LGT RAIN  51  48  89 NW13      29.61S
SOUTH BOSTON*  CLOUDY    56  54  95 N5        29.58S
MARTINSVILLE   LGT RAIN  46  43  89 NW13G24   29.67S
ROANOKE        LGT RAIN  50  44  80 NW13      29.66F
BLACKSBURG     LGT RAIN  42  41  94 W3        29.70S
DUBLIN*        RAIN      44  42  91 W8        29.70S
MARION*        CLOUDY    46  35  67 NW9       29.73R
HILLSVILLE*    LGT RAIN  42  39  88 N17       29.66S
RICHLANDS*     CLOUDY    43  26  49 NW10G17   29.73R
WISE*          CLOUDY    46  34  61 N8        29.76S
ABINGDON*      PTSUNNY   52  35  54 NW13G18   29.72F
$$

MDZ021>025-VAZ099-100-051900-
SOUTHERN MARYLAND AND THE DELMARVA PENINSULA

CITY           SKY/WX    TMP DP  RH WIND       PRES   REMARKS
PATUXENT RIVER CLOUDY    53  46  77 N13       29.62F
BAY BRIDGE APT NOT AVBL
LEONARDTOWN    CLOUDY    52  45  76 NE7       29.64F
DOVER          CLOUDY    53  50  91 N9        29.63F
GEORGETOWN     CLOUDY    51  46  83 NE13      29.63F
EASTON         CLOUDY   N/A N/A N/A NE10      29.67F
CAMBRIDGE      CLOUDY    52  46  82 N10G16    29.62F
SALISBURY      CLOUDY    52  47  83 NE10      29.61F
OCEAN CITY     CLOUDY    50  47  89 NE14G28   29.61F FOG
WALLOPS ISLAND CLOUDY    53  47  79 NE20G26   29.59F
ACCOMACK*      CLOUDY   N/A N/A N/A NE10      29.59S
$$

NCZ012>017-030>032-051900-
NORTH CENTRAL AND EASTERN NORTH CAROLINA

CITY           SKY/WX    TMP DP  RH WIND       PRES   REMARKS
ROANOKE RAPIDS CLOUDY    55  52  88 NE6       29.55R HAZE
RALEIGH        LGT RAIN  53  51  93 NW8       29.60R
ELIZABETH CITY CLOUDY    55  50  83 NE22G29   29.55S
AHOSKIE*       LGT RAIN  53  52  94 NE10      29.56S
EDENTON*       CLOUDY    58  55  89 NE10      29.55S
CURRITUCK*     CLOUDY    54  50  85 NE16G24   29.56F
KILL DEVIL HLS CLOUDY    56  50  80 N12G23    29.52S
MANTEO         CLOUDY    55  52  88 NE20G26   29.53S
CAPE HATTERAS  CLOUDY    58  54  86 NE13G25   29.50R
TARBORO*       HVY RAIN  56  54  92 NE6       29.57R VSB 1/2
GOLDSBORO      LGT RAIN  59  59 100 N9        29.51S
WASHINGTON     CLOUDY    56  54  92 N5        29.53F FOG
GREENVILLE     LGT RAIN  57  55  94 NE7       29.57F
NEW BERN       CLOUDY    64  54  69 N9        29.51F
WILMINGTON     CLOUDY    67  60  78 NE7       29.47F THUNDER
$$

VAZ048-051900-
ELSEWHERE

CITY           SKY/WX    TMP DP  RH WIND       PRES   REMARKS
HARRISBURG PA  CLOUDY    55  45  68 NE3       29.67F
BALTIMORE      CLOUDY    54  46  74 NE9       29.65F
ANNAPOLIS      CLOUDY    52  48  86 N7        29.65F
ANDREWS AFB    CLOUDY    52  48  87 NE10      29.63F
PHILADELPHIA   CLOUDY    55  44  66 NE13      29.66S
HENDERSON NC   RAIN      53  53 100 N7        29.57S
GREENSBORO     LGT RAIN  51  48  89 N8        29.62S
ROCKY MOUNT    LGT RAIN  56  54  93 E5        29.55R FOG
$$

VAZ100-051900-
MARINE

STATION/POSITION TIME  TEMP    WIND        PRES    WAVE   SWELL
                       AIR SEA DIR/SP/G            HT/PER HT/PER
                 (UTC) (F)     (DEG/KT/KT) (MB)    (FT/S) (FT/S)
BRANDYWINE LGT   1700   50      60/ 13/ 15 1003.6F
CAPE MAY NJ      1700   51 56   50/ 10/ 18 1003.3F
LEWES DE         1700   50 55   40/ 13/ 14 1003.5F
15NM E FENWICK I 1750   49 51              1002.2F   8/ 7
OCEAN-CITY-INLET 1700   50 54   40/  9/ 14 1002.3F
WACHAPREAGUE VA  1700   52 58   30/ 17/ 23 1001.7F
THOMAS POINT MD  1800   52 58   20/ 14/ 16 1004.9F
GOOSES REEF MD   1700   52 58   40/ 14/ 16 1004.9F   2/ 3
COVE POINT MD    1700   51      50/ 13/ 17 1004.0F
SOLOMONS ISLAND  1700   52 60   20/ 10/ 17   N/A
BISHOPS HEAD MD  1700   53 58   40/ 12/ 17 1002.2F
PINEY POINT MD   1700           60/  7/ 10   N/A
POTOMAC MD       1700   52 60   30/ 14/ 17 1002.1F   1/ 3
CAMBRIDGE MD     1700   52 60   30/ 12/ 14 1002.8F
LEWISETTA VA     1700   53 61   60/  6/ 10 1002.7F
RAPPAHANNOCK LGT 1700           30/ 16/ 20 1002.7F
STINGRAY PT      1700   53 61   40/ 14/ 17 1002.7F   3/ 3
YORK RVR RNG VA  1700   54      30/ 20/ 23 1001.0F
YORKTOWN VA      1700   54 63   30/ 15/ 18 1001.7F
JAMESTOWN VA     1700   54 67   30/  8/ 12   N/A
DOMINION TERM VA 1700   54      30/  6/ 12 1001.6F
KIPTOPEKE VA     1700      61   60/ 10/ 17   N/A
CHES BAY BRIDGE  1700   52 60   20/ 21/ 25 1000.8F
CAPE HENRY VA    1700   51      40/ 22/ 27   N/A
CHESAPEAKE LGHT  1700   50      30/ 26/ 28 1001.5F
WILLOUBY STN VA  1700   54      40/ 15/ 19 1002.5F
CAPE HENRY BUOY  1712      55                N/A     7/ 6
CAPE CHARLES BUO 1726      57                N/A     6/ 6   2/13
OFFSHORE WE BUOY 1721      54                N/A     7/ 7   2/18
64NM E OF VA BCH 1750   51 52   10/ 21/ 25  999.0F   7/ 7
DUCK PIER NC     1700   52 61   20/ 23/ 26  999.6F
44100 DUCK FRF   1724      55                N/A     7/ 7
44056 DUCK FRF   1711      59                N/A     6/ 6
OREGON INLET NC  1700   54 61   10/ 19/ 24  999.0F
HATTERAS NC      1700   58 68   10/ 22/ 26  998.3F
DIAMOND SHLS NC  1750   59 76   30/ 17/ 21  998.6R   6/ 6
CAPE LOOKOUT NC  1700   63      40/ 13/ 15  998.4F
$$




USA.gov is the U.S. government's official web portal to all federal, state and local government web resources and services.